BAW387 EBBR-EGLL

Flight info

Callsign BAW387
Flight time 0h 46m
Altitude 24000
Route HELEN L179 COA L608 LOGAN
Aircraft A319/M-SDE3FGIJ1KRWXY/LB1

Departure

Time 2026-05-07 13:31
Airport Brussels Airport (EBBR)

Arrival

Time 2026-05-07 14:17
Airport London Heathrow Airport (EGLL)
Time Latitude Longitude Altitude Speed Heading
2026-05-07 12:56 50.89959 4.48726 131 ft 0 kts 335°
2026-05-07 13:21 50.89958 4.48727 131 ft 2 kts 335°
2026-05-07 13:21 50.89935 4.48743 131 ft 4 kts 337°
2026-05-07 13:21 50.89910 4.48759 133 ft 4 kts 340°
2026-05-07 13:21 50.89885 4.48773 134 ft 4 kts 347°
2026-05-07 13:22 50.89859 4.48777 135 ft 4 kts 15°
2026-05-07 13:22 50.89846 4.48766 136 ft 0 kts 66°
2026-05-07 13:25 50.89849 4.48776 136 ft 2 kts 66°
2026-05-07 13:26 50.89862 4.48823 136 ft 8 kts 65°
2026-05-07 13:26 50.89890 4.48921 136 ft 11 kts 65°
2026-05-07 13:26 50.89927 4.49050 136 ft 14 kts 65°
2026-05-07 13:26 50.89969 4.49203 134 ft 12 kts 72°
2026-05-07 13:27 50.90008 4.49350 132 ft 15 kts 62°
2026-05-07 13:27 50.89990 4.49397 132 ft 6 kts 171°
2026-05-07 13:27 50.89950 4.49386 134 ft 7 kts 194°
2026-05-07 13:27 50.89894 4.49363 137 ft 10 kts 194°
2026-05-07 13:28 50.89820 4.49333 142 ft 13 kts 194°
2026-05-07 13:28 50.89722 4.49293 148 ft 17 kts 194°
2026-05-07 13:28 50.89614 4.49239 154 ft 16 kts 217°
2026-05-07 13:28 50.89520 4.49169 159 ft 15 kts 194°
2026-05-07 13:29 50.89424 4.49131 163 ft 14 kts 194°
2026-05-07 13:29 50.89331 4.49093 167 ft 14 kts 194°
2026-05-07 13:29 50.89242 4.49057 172 ft 12 kts 194°
2026-05-07 13:29 50.89176 4.49029 176 ft 7 kts 194°
2026-05-07 13:30 50.89139 4.49060 177 ft 8 kts 91°
2026-05-07 13:30 50.89165 4.49172 176 ft 15 kts 70°
2026-05-07 13:30 50.89267 4.49614 177 ft 76 kts 70°
2026-05-07 13:30 50.89522 4.50715 176 ft 134 kts 70°
2026-05-07 13:31 50.89867 4.52255 536 ft 150 kts 71°
2026-05-07 13:31 50.90269 4.53767 1189 ft 148 kts 60°
2026-05-07 13:31 50.90766 4.55178 1868 ft 145 kts 61°
2026-05-07 13:31 50.91520 4.56221 2420 ft 147 kts 20°
2026-05-07 13:32 50.92518 4.56372 2963 ft 148 kts 352°
2026-05-07 13:32 50.93420 4.55650 3465 ft 151 kts 321°
2026-05-07 13:32 50.94104 4.54214 3718 ft 176 kts 305°
2026-05-07 13:32 50.94834 4.52532 4074 ft 196 kts 305°
2026-05-07 13:33 50.95685 4.50616 4341 ft 227 kts 306°
2026-05-07 13:33 50.96637 4.48459 4868 ft 250 kts 305°
2026-05-07 13:33 50.97653 4.46158 5561 ft 264 kts 305°
2026-05-07 13:33 50.98731 4.43710 6558 ft 269 kts 304°
2026-05-07 13:34 50.99797 4.41284 7495 ft 273 kts 304°
2026-05-07 13:34 51.02008 4.36248 9362 ft 283 kts 303°
2026-05-07 13:34 51.03146 4.33666 10245 ft 288 kts 303°
2026-05-07 13:35 51.04336 4.30963 10640 ft 310 kts 303°
2026-05-07 13:35 51.05618 4.28049 11012 ft 330 kts 304°
2026-05-07 13:35 51.06947 4.25030 11703 ft 337 kts 304°
2026-05-07 13:35 51.08297 4.21959 12491 ft 340 kts 304°
2026-05-07 13:36 51.09658 4.18849 13263 ft 343 kts 304°
2026-05-07 13:36 51.11026 4.15712 14022 ft 346 kts 304°
2026-05-07 13:36 51.12408 4.12546 14681 ft 350 kts 304°
2026-05-07 13:36 51.13805 4.09349 15362 ft 354 kts 304°
2026-05-07 13:37 51.15214 4.06121 16040 ft 356 kts 304°
2026-05-07 13:37 51.16636 4.02864 16715 ft 360 kts 304°
2026-05-07 13:37 51.18069 3.99578 17394 ft 363 kts 303°
2026-05-07 13:37 51.19516 3.96252 18078 ft 366 kts 303°
2026-05-07 13:38 51.20970 3.92898 18704 ft 369 kts 303°
2026-05-07 13:38 51.22434 3.89509 19291 ft 373 kts 303°
2026-05-07 13:38 51.23716 3.85905 19876 ft 375 kts 293°
2026-05-07 13:38 51.24635 3.81998 20475 ft 378 kts 288°
2026-05-07 13:39 51.25508 3.78031 21070 ft 380 kts 288°
2026-05-07 13:39 51.26389 3.74033 21633 ft 383 kts 288°
2026-05-07 13:39 51.27280 3.69995 22207 ft 386 kts 288°
2026-05-07 13:39 51.28175 3.65932 22755 ft 389 kts 288°
2026-05-07 13:40 51.29065 3.61888 23262 ft 393 kts 288°
2026-05-07 13:40 51.29983 3.57720 23538 ft 394 kts 288°
2026-05-07 13:40 51.30882 3.53630 23786 ft 395 kts 288°
2026-05-07 13:40 51.31791 3.49478 23999 ft 398 kts 288°
2026-05-07 13:41 51.32697 3.45315 24069 ft 392 kts 288°
2026-05-07 13:41 51.33583 3.41215 24078 ft 389 kts 288°
2026-05-07 13:41 51.34463 3.37141 24073 ft 387 kts 288°
2026-05-07 13:41 51.35353 3.33066 24080 ft 387 kts 288°
2026-05-07 13:42 51.36285 3.29018 24079 ft 387 kts 289°
2026-05-07 13:42 51.37248 3.24996 24082 ft 387 kts 289°
2026-05-07 13:42 51.38218 3.20991 24075 ft 387 kts 290°
2026-05-07 13:42 51.39193 3.16967 24076 ft 387 kts 290°
2026-05-07 13:43 51.40161 3.12945 24079 ft 387 kts 289°
2026-05-07 13:43 51.41116 3.08924 24079 ft 387 kts 289°
2026-05-07 13:43 51.42068 3.04882 24083 ft 387 kts 289°
2026-05-07 13:43 51.43014 3.00847 24082 ft 387 kts 289°
2026-05-07 13:44 51.43962 2.96809 24081 ft 387 kts 289°
2026-05-07 13:44 51.44910 2.92769 24088 ft 387 kts 289°
2026-05-07 13:44 51.45854 2.88726 24088 ft 387 kts 289°
2026-05-07 13:44 51.46795 2.84678 24092 ft 387 kts 289°
2026-05-07 13:45 51.47736 2.80623 24088 ft 387 kts 289°
2026-05-07 13:45 51.48678 2.76568 24089 ft 387 kts 289°
2026-05-07 13:45 51.49618 2.72533 24090 ft 387 kts 289°
2026-05-07 13:45 51.50558 2.68495 24087 ft 386 kts 289°
2026-05-07 13:46 51.51493 2.64454 24085 ft 387 kts 289°
2026-05-07 13:46 51.52425 2.60396 24089 ft 387 kts 289°
2026-05-07 13:46 51.53352 2.56342 24085 ft 387 kts 289°
2026-05-07 13:46 51.54279 2.52299 24089 ft 387 kts 289°
2026-05-07 13:47 51.55198 2.48289 24101 ft 387 kts 289°
2026-05-07 13:47 51.56139 2.44178 24099 ft 387 kts 289°
2026-05-07 13:47 51.57065 2.40119 24095 ft 387 kts 289°
2026-05-07 13:47 51.57991 2.36057 24099 ft 387 kts 289°
2026-05-07 13:48 51.58919 2.31991 24086 ft 387 kts 289°
2026-05-07 13:48 51.59847 2.27924 24078 ft 388 kts 289°
2026-05-07 13:48 51.60761 2.23910 24087 ft 387 kts 289°
2026-05-07 13:48 51.61688 2.19828 24082 ft 388 kts 289°
2026-05-07 13:49 51.62612 2.15753 24089 ft 388 kts 289°
2026-05-07 13:49 51.63534 2.11676 24091 ft 387 kts 288°
2026-05-07 13:49 51.64453 2.07604 24082 ft 387 kts 288°
2026-05-07 13:49 51.65367 2.03533 24083 ft 387 kts 288°
2026-05-07 13:50 51.66279 1.99456 24079 ft 387 kts 288°
2026-05-07 13:50 51.67187 1.95377 24082 ft 387 kts 288°
2026-05-07 13:50 51.68095 1.91294 24087 ft 387 kts 288°
2026-05-07 13:50 51.69001 1.87205 24088 ft 387 kts 288°
2026-05-07 13:51 51.69911 1.83108 24086 ft 388 kts 288°
2026-05-07 13:51 51.70823 1.79020 24086 ft 388 kts 288°
2026-05-07 13:51 51.71732 1.74927 24070 ft 388 kts 288°
2026-05-07 13:51 51.72635 1.70835 23829 ft 386 kts 288°
2026-05-07 13:52 51.73534 1.66756 23587 ft 385 kts 288°
2026-05-07 13:52 51.74251 1.62614 23306 ft 382 kts 279°
2026-05-07 13:52 51.74498 1.58383 23028 ft 379 kts 269°
2026-05-07 13:52 51.74315 1.54163 22752 ft 376 kts 263°
2026-05-07 13:53 51.74039 1.49971 22480 ft 375 kts 263°
2026-05-07 13:53 51.73773 1.45822 22127 ft 368 kts 263°
2026-05-07 13:53 51.73512 1.41711 21607 ft 366 kts 263°
2026-05-07 13:53 51.73252 1.37652 21174 ft 362 kts 263°
2026-05-07 13:54 51.72993 1.33641 20732 ft 358 kts 263°
2026-05-07 13:54 51.72733 1.29678 20282 ft 353 kts 263°
2026-05-07 13:54 51.72475 1.25760 19833 ft 349 kts 263°
2026-05-07 13:54 51.72217 1.21873 19374 ft 347 kts 263°
2026-05-07 13:55 51.71962 1.18075 18929 ft 344 kts 263°
2026-05-07 13:55 51.71706 1.14247 18459 ft 342 kts 263°
2026-05-07 13:55 51.71453 1.10440 17953 ft 340 kts 263°
2026-05-07 13:55 51.71198 1.06675 17495 ft 336 kts 263°
2026-05-07 13:56 51.70942 1.02951 17040 ft 333 kts 263°
2026-05-07 13:56 51.70686 0.99259 16588 ft 329 kts 263°
2026-05-07 13:56 51.70433 0.95604 16140 ft 327 kts 263°
2026-05-07 13:56 51.70180 0.91939 15648 ft 336 kts 262°
2026-05-07 13:57 51.69917 0.88173 15114 ft 340 kts 262°
2026-05-07 13:57 51.69654 0.84394 14585 ft 339 kts 262°
2026-05-07 13:57 51.69393 0.80618 14061 ft 338 kts 262°
2026-05-07 13:57 51.69128 0.76852 13495 ft 338 kts 262°
2026-05-07 13:58 51.68862 0.73116 12967 ft 335 kts 262°
2026-05-07 13:58 51.68596 0.69396 12455 ft 332 kts 262°
2026-05-07 13:58 51.68422 0.66950 12107 ft 331 kts 262°
2026-05-07 13:58 51.68158 0.63273 11588 ft 329 kts 262°
2026-05-07 13:59 51.67893 0.59622 11177 ft 324 kts 262°
2026-05-07 13:59 51.67636 0.56094 11050 ft 311 kts 262°
2026-05-07 13:59 51.67391 0.52704 10917 ft 299 kts 262°
2026-05-07 13:59 51.67153 0.49414 10669 ft 293 kts 262°
2026-05-07 14:00 51.66916 0.46178 10423 ft 289 kts 262°
2026-05-07 14:00 51.66682 0.42974 10189 ft 287 kts 262°
2026-05-07 14:00 51.66448 0.39780 9848 ft 286 kts 262°
2026-05-07 14:00 51.66212 0.36601 9475 ft 287 kts 261°
2026-05-07 14:01 51.65972 0.33431 9113 ft 284 kts 262°
2026-05-07 14:01 51.65735 0.30288 8768 ft 282 kts 262°
2026-05-07 14:01 51.65501 0.27160 8419 ft 280 kts 262°
2026-05-07 14:01 51.65265 0.24059 8066 ft 278 kts 262°
2026-05-07 14:02 51.65030 0.20977 7707 ft 277 kts 261°
2026-05-07 14:02 51.64798 0.17905 7389 ft 275 kts 262°
2026-05-07 14:02 51.64570 0.14861 7124 ft 272 kts 262°
2026-05-07 14:02 51.64374 0.11837 7078 ft 272 kts 263°
2026-05-07 14:03 51.64210 0.08799 7081 ft 273 kts 264°
2026-05-07 14:03 51.64055 0.05758 7091 ft 273 kts 264°
2026-05-07 14:03 51.63899 0.02718 7093 ft 273 kts 264°
2026-05-07 14:03 51.63738 -0.00319 7082 ft 273 kts 264°
2026-05-07 14:04 51.63575 -0.03315 7081 ft 270 kts 263°
2026-05-07 14:04 51.63409 -0.06308 7087 ft 268 kts 263°
2026-05-07 14:04 51.63239 -0.09309 7080 ft 270 kts 264°
2026-05-07 14:04 51.63064 -0.12307 7081 ft 271 kts 264°
2026-05-07 14:05 51.62887 -0.15317 7077 ft 270 kts 264°
2026-05-07 14:05 51.62717 -0.18326 7091 ft 270 kts 264°
2026-05-07 14:05 51.62550 -0.21339 7095 ft 271 kts 264°
2026-05-07 14:05 51.62381 -0.24353 7087 ft 270 kts 264°
2026-05-07 14:06 51.62209 -0.27358 7088 ft 270 kts 263°
2026-05-07 14:06 51.62035 -0.30366 7082 ft 268 kts 264°
2026-05-07 14:06 51.61866 -0.33348 7055 ft 269 kts 263°
2026-05-07 14:06 51.61689 -0.36351 7059 ft 271 kts 263°
2026-05-07 14:07 51.61504 -0.39359 7055 ft 269 kts 263°
2026-05-07 14:07 51.61316 -0.42370 7064 ft 270 kts 263°
2026-05-07 14:07 51.61135 -0.45378 7072 ft 270 kts 264°
2026-05-07 14:07 51.60957 -0.48394 7052 ft 272 kts 263°
2026-05-07 14:08 51.60783 -0.51409 7057 ft 270 kts 263°
2026-05-07 14:08 51.60614 -0.54357 7054 ft 257 kts 264°
2026-05-07 14:08 51.60452 -0.57153 7052 ft 245 kts 263°
2026-05-07 14:08 51.60289 -0.59819 7057 ft 234 kts 263°
2026-05-07 14:09 51.60130 -0.62342 7055 ft 222 kts 263°
2026-05-07 14:09 51.59976 -0.64786 7056 ft 220 kts 263°
2026-05-07 14:09 51.59817 -0.67245 6754 ft 221 kts 263°
2026-05-07 14:09 51.59665 -0.69696 6421 ft 218 kts 263°
2026-05-07 14:10 51.59515 -0.72128 6082 ft 217 kts 263°
2026-05-07 14:10 51.59375 -0.74530 5744 ft 214 kts 263°
2026-05-07 14:10 51.59080 -0.76853 5455 ft 210 kts 244°
2026-05-07 14:10 51.58189 -0.78667 5200 ft 207 kts 217°
2026-05-07 14:11 51.56887 -0.79579 4937 ft 206 kts 190°
2026-05-07 14:11 51.55465 -0.79583 4683 ft 202 kts 178°
2026-05-07 14:11 51.54073 -0.79492 4428 ft 201 kts 178°
2026-05-07 14:11 51.52685 -0.79420 4175 ft 199 kts 180°
2026-05-07 14:12 51.51299 -0.79351 3915 ft 199 kts 178°
2026-05-07 14:12 51.49971 -0.78853 3714 ft 193 kts 157°
2026-05-07 14:12 51.48855 -0.77668 3599 ft 194 kts 137°
2026-05-07 14:12 51.48051 -0.75965 3444 ft 194 kts 117°
2026-05-07 14:13 51.47649 -0.73903 3222 ft 195 kts 97°
2026-05-07 14:13 51.47627 -0.71759 2980 ft 195 kts 90°
2026-05-07 14:13 51.47642 -0.69614 2742 ft 191 kts 89°
2026-05-07 14:13 51.47655 -0.67508 2458 ft 187 kts 90°
2026-05-07 14:14 51.47666 -0.65467 2205 ft 178 kts 90°
2026-05-07 14:14 51.47677 -0.63542 1967 ft 167 kts 90°
2026-05-07 14:14 51.47687 -0.61731 1750 ft 158 kts 90°
2026-05-07 14:14 51.47696 -0.60018 1542 ft 151 kts 90°
2026-05-07 14:15 51.47704 -0.58370 1350 ft 143 kts 90°
2026-05-07 14:15 51.47711 -0.56818 1154 ft 137 kts 90°
2026-05-07 14:15 51.47718 -0.55310 961 ft 134 kts 90°
2026-05-07 14:15 51.47725 -0.53834 782 ft 131 kts 90°
2026-05-07 14:16 51.47733 -0.52384 612 ft 129 kts 90°
2026-05-07 14:16 51.47747 -0.50958 432 ft 127 kts 89°
2026-05-07 14:16 51.47749 -0.49548 257 ft 126 kts 91°
2026-05-07 14:16 51.47755 -0.48147 105 ft 124 kts 90°
2026-05-07 14:17 51.47756 -0.46931 91 ft 90 kts 90°
2026-05-07 14:17 51.47759 -0.46198 88 ft 41 kts 89°
2026-05-07 14:17 51.47761 -0.45742 84 ft 34 kts 89°
2026-05-07 14:17 51.47752 -0.45512 87 ft 16 kts 121°
2026-05-07 14:18 51.47664 -0.45467 89 ft 9 kts 179°
2026-05-07 14:18 51.47600 -0.45502 89 ft 11 kts 243°
2026-05-07 14:18 51.47596 -0.45643 86 ft 14 kts 270°
2026-05-07 14:18 51.47595 -0.45813 86 ft 17 kts 269°
2026-05-07 14:19 51.47595 -0.46012 86 ft 19 kts 270°
2026-05-07 14:19 51.47594 -0.46227 86 ft 20 kts 269°
2026-05-07 14:19 51.47593 -0.46467 86 ft 23 kts 270°
2026-05-07 14:19 51.47592 -0.46709 86 ft 17 kts 269°
2026-05-07 14:20 51.47584 -0.46871 86 ft 15 kts 259°
2026-05-07 14:20 51.47582 -0.47054 91 ft 16 kts 270°
2026-05-07 14:20 51.47582 -0.47192 86 ft 9 kts 270°
2026-05-07 14:20 51.47582 -0.47288 86 ft 10 kts 269°
2026-05-07 14:21 51.47581 -0.47412 86 ft 12 kts 270°
2026-05-07 14:21 51.47581 -0.47566 86 ft 15 kts 270°
2026-05-07 14:21 51.47580 -0.47749 86 ft 18 kts 270°
2026-05-07 14:21 51.47580 -0.47960 89 ft 20 kts 270°
2026-05-07 14:22 51.47579 -0.48172 87 ft 18 kts 270°
2026-05-07 14:22 51.47578 -0.48360 87 ft 12 kts 269°
2026-05-07 14:22 51.47568 -0.48458 86 ft 8 kts 232°
2026-05-07 14:22 51.47520 -0.48476 89 ft 7 kts 179°
2026-05-07 14:23 51.47472 -0.48475 86 ft 7 kts 180°
2026-05-07 14:23 51.47424 -0.48475 88 ft 8 kts 179°
2026-05-07 14:23 51.47373 -0.48474 86 ft 7 kts 179°
2026-05-07 14:23 51.47361 -0.48520 88 ft 5 kts 271°
2026-05-07 14:24 51.47361 -0.48572 88 ft 4 kts 269°
2026-05-07 14:24 51.47361 -0.48586 86 ft 0 kts 269°
2026-05-07 14:24 51.47361 -0.48589 86 ft 0 kts 269°